[[{"header":{"parameterUnit":"m.s-1","parameterCategory":2,"la1":30.2991,"la2":30.254,"lo1":-89.0895,"lo2":-89.0444,"dy":0.0017,"dx":0.0017,"nx":28,"ny":28,"refTime":"2025-07-11T09:00:00:Z","depth":"0","parameterNumber":2,"parameterNumberName":"U-component_of_CURRENTS"},"data":[0,0,0,0,0,0,0,0,0,0,0,0,0,0,0,0,0,0,0,0,0,0,0,0,0,0,0,0,0,0,0,0,0,0,0,0,0,0,0,0,0,0,0,0,0,0,0,0,0,0,0,0,0,0,0,0,0,0,0.2854,0.2855,0,0.2948,0.2949,0.295,0.2964,0.2963,0.2962,0.2961,0.3065,0.3069,0.3073,0,0,0,0,0,0,0,0,0,0,0,0,0,0.2818,0.2818,0.2854,0.2855,0.2856,0.2948,0.2949,0.2951,0.2964,0.2963,0.2962,0.296,0.3064,0.3069,0.3073,0,0,0,0,0,0,0,0,0,0,0,0,0,0.2867,0.2818,0.2854,0.2871,0.2874,0.2947,0.2949,0.2951,0.2965,0.2963,0.2961,0.296,0.3063,0.3068,0.3074,0.3144,0,0,0.3091,0.3094,0,0,0,0,0,0,0,0,0.2864,0.2869,0.2868,0.287,0.2873,0.294,0.2975,0.3015,0.2965,0.2933,0.2961,0.2959,0.3024,0.3033,0.3058,0.3149,0.3153,0.3092,0.3095,0.3098,0.31,0,0,0,0,0,0,0,0.2861,0.2866,0.2894,0.2869,0.2872,0.2919,0.2923,0.2983,0.299,0.2936,0.2936,0.2943,0.3025,0.3053,0.3061,0.3155,0.3092,0.3097,0.3101,0.3103,0.3414,0.3419,0,0,0,0,0,0,0.2838,0.2862,0.2891,0.2897,0.2861,0.292,0.2925,0.2923,0.2989,0.2996,0.2944,0.2943,0.3044,0.3054,0.3064,0.322,0.3098,0.3103,0.3107,0.3409,0.3415,0.342,0,0,0,0,0,0,0.2837,0.2839,0.2888,0.288,0.2888,0.2921,0.2919,0.2925,0.2955,0.2994,0.3002,0.2966,0.3043,0.3056,0.3138,0.3221,0.3106,0.3111,0.3404,0.3411,0.3418,0.3487,0,0,0,0,0,0,0.2835,0.2838,0.2837,0.2878,0.2888,0.2943,0.2921,0.2928,0.2959,0.2959,0.3016,0.3024,0.3042,0.3129,0.3143,0.3227,0.3116,0.3398,0.3407,0.3415,0.3479,0.3496,0.351,0,0,0,0,0,0.2833,0.2839,0.2837,0.2841,0.2882,0.2944,0.2956,0.2976,0.2962,0.2993,0.3032,0.3022,0.3198,0.3137,0.3153,0.324,0.3393,0.3404,0.3415,0.3472,0.3492,0.351,0,0,0,0,0,0,0.2827,0.2842,0.284,0.2849,0.2897,0.2945,0.2969,0.2985,0.3041,0.3038,0.3066,0.3079,0.3194,0.3212,0.3144,0.3364,0.3303,0.3317,0.3341,0.3361,0.3376,0.3396,0.312,0,0,0,0,0,0.2823,0.2827,0.2863,0.2875,0.2892,0.2933,0.296,0.2981,0.3029,0.3051,0.3096,0.3163,0.3257,0.3295,0.3372,0.3473,0.3469,0.3551,0.3566,0.3579,0.3612,0.3652,0.3673,0.3456,0.3456,0.3456,0,0,0.2823,0.2833,0.2835,0.2874,0.2904,0.2965,0.2946,0.2994,0.3067,0.3057,0.3163,0.3217,0.3298,0.3424,0.3478,0.3441,0.3641,0.3593,0.3603,0.3629,0.3666,0.3686,0.3704,0.3463,0.3462,0.3461,0,0,0.2837,0.2835,0.2848,0.2895,0.2944,0.2987,0.3002,0.3066,0.3112,0.3216,0.3248,0.3349,0.3462,0.3554,0.3612,0.3766,0.3725,0.3793,0.3883,0.3921,0.3937,0.3952,0.3959,0.3974,0.3796,0.3796,0.3796,0,0.2838,0.2861,0.287,0.2914,0.2967,0.2999,0.3064,0.3131,0.3223,0.328,0.3259,0.348,0.3542,0.372,0.379,0.3804,0.3792,0.3789,0.3935,0.395,0.3964,0.3967,0.3982,0.38,0.38,0.3799,0.3799,0,0.2872,0.2907,0.2927,0.2993,0.3057,0.3119,0.3207,0.328,0.3332,0.34,0.3565,0.3653,0.3776,0.3836,0.3867,0.403,0.3978,0.3943,0.3867,0.3988,0.3986,0.4,0.3807,0.3805,0.3804,0.3803,0,0,0.2845,0.293,0.2941,0.2995,0.3108,0.3165,0.3296,0.3428,0.3509,0.3616,0.3737,0.3934,0.3953,0.4026,0.4076,0.4142,0.4239,0.4093,0.4092,0.4066,0.4291,0.4044,0.4035,0.4199,0.4203,0.4205,0.4241,0,0.2878,0.2958,0.3013,0.3138,0.3197,0.3293,0.3411,0.3537,0.3636,0.3758,0.388,0.4009,0.4032,0.4088,0.4167,0.4224,0.4283,0.4231,0.421,0.421,0.3946,0.4047,0.3838,0.3834,0.4255,0.4257,0.4259,0,0.2898,0.2958,0.3052,0.3208,0.3244,0.3329,0.3511,0.3625,0.3803,0.3876,0.4011,0.408,0.4251,0.4217,0.4364,0.4313,0.4331,0.4355,0.4355,0.4115,0.399,0.3791,0.3843,0.3763,0.4281,0.4279,0.4277,0,0.2856,0.3,0.3071,0.3124,0.329,0.3366,0.3474,0.365,0.3754,0.3941,0.4005,0.4182,0.4257,0.433,0.4387,0.4375,0.4489,0.4457,0.4259,0.424,0.4059,0.4015,0.4004,0.456,0.456,0.456,0.456,0,0.2864,0.2933,0.305,0.3087,0.3212,0.334,0.3479,0.3608,0.3779,0.3891,0.4043,0.4134,0.4285,0.4358,0.4405,0.4352,0.4488,0.4299,0.4243,0.4073,0.4033,0.3948,0.3925,0.4561,0.4561,0.4561,0.456,0,0.2799,0.2868,0.2962,0.3119,0.3179,0.3262,0.3464,0.3558,0.3715,0.3859,0.3915,0.411,0.4168,0.4267,0.4377,0.4325,0.4191,0.4285,0.4053,0.3967,0.3629,0.3616,0.3451,0.3358,0.4058,0.4052,0.4047,0,0.2773,0.2798,0.2943,0.2995,0.3063,0.3203,0.3295,0.3502,0.3599,0.3823,0.3876,0.3991,0.4039,0.4073,0.4013,0.3989,0.3978,0.377,0.3715,0.3592,0.3543,0.3475,0.3409,0.3524,0.3515,0.3508,0.3502,0,0.2732,0.2758,0.2818,0.2912,0.3004,0.3122,0.3268,0.3337,0.3555,0.3647,0.3758,0.3812,0.3809,0.3665,0.3592,0.357,0.3544,0.361,0.3582,0.32,0.3038,0.2924,0.3514,0.3438,0.3445,0.3449,0.3453,0.3455,0.2687,0.2701,0.2754,0.2837,0.2932,0.3014,0.3057,0.3183,0.3285,0.3365,0.3519,0.3476,0.3413,0.3246,0.3201,0.2947,0.3036,0.2852,0.2875,0.2842,0.2654,0.3058,0.2837,0.2839,0.2842,0.2844,0.2846,0,0.2638,0.2643,0.2696,0.2771,0.2803,0.29,0.301,0.2999,0.3019,0.3086,0.3107,0.2957,0.277,0.2712,0.2453,0.2289,0.2268,0.2226,0.2174,0.217,0.2619,0.2496,0.2068,0.2068,0.2068,0.2068,0.2068,0.2068,0.2613,0.2602,0.2608,0.2617,0.2658,0.2658,0.2676,0.2656,0.267,0.2542,0.242,0.2395,0.2383,0.2183,0.1953,0.1897,0.1831,0.1643,0.1744,0.2146,0.221,0.2272,0.2153,0.1661,0.166,0.1211,0.1207,0.1204]},{"header":{"parameterUnit":"m.s-1","parameterCategory":2,"la1":30.2991,"la2":30.254,"lo1":-89.0895,"lo2":-89.0444,"dy":0.0017,"dx":0.0017,"nx":28,"ny":28,"refTime":"2025-07-11T09:00:00:Z","depth":"0","parameterNumber":3,"parameterNumberName":"V-component_of_CURRENTS"},"data":[0,0,0,0,0,0,0,0,0,0,0,0,0,0,0,0,0,0,0,0,0,0,0,0,0,0,0,0,0,0,0,0,0,0,0,0,0,0,0,0,0,0,0,0,0,0,0,0,0,0,0,0,0,0,0,0,0,0,-0.0019,-0.002,0,-0.0112,-0.0113,-0.0114,-0.0163,-0.0163,-0.0163,-0.0163,-0.0254,-0.0256,-0.0259,0,0,0,0,0,0,0,0,0,0,0,0,0,0.0034,0.0034,-0.0019,-0.002,-0.0021,-0.0112,-0.0113,-0.0115,-0.0163,-0.0163,-0.0163,-0.0163,-0.0253,-0.0256,-0.0259,0,0,0,0,0,0,0,0,0,0,0,0,0,-0.0018,0.0034,-0.0019,-0.0055,-0.0059,-0.0112,-0.0113,-0.0115,-0.0163,-0.0163,-0.0163,-0.0163,-0.0252,-0.0256,-0.026,-0.0285,0,0,-0.0271,-0.0273,0,0,0,0,0,0,0,0,-0.0015,-0.002,-0.0049,-0.0053,-0.0057,-0.0125,-0.0128,-0.0171,-0.0163,-0.0125,-0.0163,-0.0163,-0.021,-0.0217,-0.0237,-0.0289,-0.0293,-0.0271,-0.0274,-0.0275,-0.0276,0,0,0,0,0,0,0,-0.0011,-0.0017,-0.0057,-0.005,-0.0055,-0.0095,-0.0101,-0.0137,-0.0168,-0.0129,-0.0132,-0.014,-0.0212,-0.0233,-0.0239,-0.0294,-0.0271,-0.0274,-0.0277,-0.0278,-0.0361,-0.0361,0,0,0,0,0,0,0.0008,-0.0013,-0.0054,-0.006,-0.0034,-0.0095,-0.0103,-0.0104,-0.0168,-0.0177,-0.014,-0.0142,-0.0227,-0.0235,-0.0243,-0.025,-0.0275,-0.0279,-0.0281,-0.0361,-0.0361,-0.0361,0,0,0,0,0,0,0.0009,0.0005,-0.0051,-0.0038,-0.0047,-0.0095,-0.0097,-0.0106,-0.0123,-0.0176,-0.0186,-0.0146,-0.0227,-0.0237,-0.0267,-0.0255,-0.028,-0.0284,-0.0361,-0.0361,-0.0361,-0.0282,0,0,0,0,0,0,0.0011,0.0007,0.0009,-0.0036,-0.0047,-0.0072,-0.0097,-0.0108,-0.0127,-0.0131,-0.0185,-0.0194,-0.0228,-0.0261,-0.0271,-0.026,-0.0287,-0.0361,-0.0361,-0.0361,-0.0284,-0.0279,-0.0274,0,0,0,0,0,0.0014,0.0021,0.001,0.0004,-0.0041,-0.0071,-0.0081,-0.0117,-0.0127,-0.0132,-0.0168,-0.0192,-0.0268,-0.0264,-0.0276,-0.0266,-0.0361,-0.0361,-0.0361,-0.0287,-0.028,-0.0274,0,0,0,0,0,0,0.0042,0.0016,0.0002,-0.0,-0.0029,-0.0079,-0.0087,-0.011,-0.0144,-0.0145,-0.0194,-0.0205,-0.0227,-0.0261,-0.0255,-0.0291,-0.0318,-0.032,-0.0257,-0.0252,-0.0247,-0.0188,-0.029,0,0,0,0,0,0.0051,0.0053,0.0016,0.0014,0.0004,-0.004,-0.0057,-0.008,-0.0115,-0.0129,-0.0169,-0.0208,-0.0238,-0.0254,-0.0291,-0.031,-0.03,-0.0312,-0.0307,-0.0302,-0.0263,-0.023,-0.0217,-0.0361,-0.0361,-0.0361,0,0,0.006,0.0047,0.0047,0.0021,-0.0004,-0.0014,-0.005,-0.0068,-0.0074,-0.0134,-0.0154,-0.0193,-0.024,-0.0261,-0.0273,-0.0285,-0.0264,-0.0302,-0.0298,-0.026,-0.0229,-0.0214,-0.0201,-0.0361,-0.0361,-0.0361,0,0,0.0084,0.0071,0.008,0.0062,0.0034,0.0007,0.0008,-0.0038,-0.0054,-0.0082,-0.012,-0.0133,-0.0205,-0.0214,-0.0232,-0.0219,-0.0239,-0.0254,-0.0177,-0.0146,-0.0133,-0.0121,-0.011,-0.0098,-0.0249,-0.0249,-0.0249,0,0.0096,0.0105,0.0076,0.0078,0.0071,0.0025,0.0031,0.0005,-0.0045,-0.0039,-0.0078,-0.012,-0.0169,-0.0151,-0.0158,-0.02,-0.0199,-0.0195,-0.0135,-0.0122,-0.0111,-0.0103,-0.009,-0.0245,-0.0245,-0.0246,-0.0246,0,0.0124,0.0129,0.0134,0.0126,0.0112,0.0111,0.0077,0.0069,0.0041,0.0021,0.0026,-0.0026,-0.0038,-0.007,-0.0117,-0.0067,-0.0098,-0.0131,-0.0138,-0.0091,-0.0087,-0.0075,-0.0239,-0.0241,-0.0242,-0.0243,0,0,0.0161,0.0156,0.0159,0.0173,0.0142,0.0141,0.0141,0.0141,0.0173,0.0124,0.0175,0.0114,0.0104,0.0085,0.0038,0.0056,0.0107,-0.0005,-0.0005,0.0027,0.0164,0.0112,0.012,0.0082,0.0085,0.0087,0.0128,0,0.0194,0.0222,0.0205,0.0233,0.0246,0.0218,0.0229,0.0225,0.0216,0.0249,0.023,0.0242,0.0156,0.0161,0.0169,0.0125,0.0146,0.0099,0.0096,0.0096,0.0063,0.0135,0.0138,0.0173,0.014,0.0142,0.0144,0,0.023,0.0247,0.0282,0.031,0.0315,0.032,0.0362,0.0369,0.0397,0.04,0.0426,0.0397,0.042,0.0341,0.0336,0.0304,0.0251,0.0216,0.0216,0.0162,0.0069,0.0122,0.0196,0.0129,0.0162,0.016,0.0159,0,0.0284,0.0307,0.0346,0.0349,0.0363,0.0385,0.0397,0.042,0.0466,0.0514,0.0564,0.0564,0.0589,0.0539,0.0433,0.0392,0.043,0.0361,0.0277,0.0271,0.0275,0.0264,0.0311,0.039,0.039,0.039,0.039,0,0.0333,0.0364,0.0378,0.0398,0.0465,0.0448,0.0534,0.0546,0.061,0.0704,0.0657,0.0738,0.0641,0.0628,0.0515,0.044,0.0493,0.0329,0.0298,0.0295,0.0286,0.0226,0.0161,0.0391,0.0391,0.0391,0.039,0,0.0384,0.0389,0.0441,0.0472,0.0491,0.0541,0.0622,0.0694,0.073,0.0861,0.0887,0.0897,0.0872,0.0757,0.0684,0.0557,0.043,0.0432,0.042,0.0387,0.0222,0.0159,0.0171,0.0143,0.0362,0.0361,0.0361,0,0.0411,0.0442,0.0504,0.0554,0.057,0.0646,0.0711,0.0756,0.0845,0.0967,0.1047,0.1054,0.1084,0.0941,0.0726,0.0551,0.0445,0.0418,0.0343,0.0254,0.0163,0.0117,0.009,0.0369,0.0369,0.0368,0.0368,0,0.0465,0.0487,0.0535,0.0636,0.0709,0.081,0.0902,0.0991,0.1075,0.1186,0.1315,0.1346,0.1197,0.1029,0.0755,0.0609,0.0364,0.0401,0.0339,0.0214,0.0145,0.0089,0.0278,0.0365,0.0365,0.0365,0.0365,0.0366,0.0508,0.0557,0.0625,0.0726,0.0821,0.095,0.105,0.1172,0.1329,0.1492,0.1504,0.1571,0.1294,0.0925,0.0727,0.0356,0.0345,0.024,0.0184,0.0156,0.0104,0.0271,0.0293,0.0293,0.0293,0.0293,0.0293,0,0.0557,0.0616,0.0712,0.0832,0.0951,0.099,0.1166,0.1284,0.148,0.1615,0.1721,0.1609,0.1293,0.0933,0.0428,0.0195,0.0113,0.0068,0.003,0.0021,0.0212,0.0185,0.0151,0.0151,0.0151,0.0151,0.0151,0.0151,0.0584,0.0674,0.0723,0.0913,0.1012,0.1176,0.1283,0.1467,0.1597,0.1759,0.1784,0.177,0.1472,0.0657,0.0147,0.0032,-0.0093,-0.0156,-0.0206,-0.0069,-0.0056,-0.0044,-0.008,-0.0169,-0.017,-0.0351,-0.0353,-0.0355]}],[{"header":{"parameterUnit":"m.s-1","parameterCategory":2,"la1":30.2991,"la2":30.254,"lo1":-89.0895,"lo2":-89.0444,"dy":0.0017,"dx":0.0017,"nx":28,"ny":28,"refTime":"2025-07-11T09:00:00:Z","depth":"2","parameterNumber":2,"parameterNumberName":"U-component_of_CURRENTS"},"data":[0,0,0,0,0,0,0,0,0,0,0,0,0,0,0,0,0,0,0,0,0,0,0,0,0,0,0,0,0,0,0,0,0,0,0,0,0,0,0,0,0,0,0,0,0,0,0,0,0,0,0,0,0,0,0,0,0,0,0.2351,0.2351,0,0.2375,0.2375,0.2375,0.2369,0.2368,0.2368,0.2367,0.2398,0.2399,0.2401,0,0,0,0,0,0,0,0,0,0,0,0,0,0.2354,0.2354,0.2351,0.2351,0.2351,0.2375,0.2375,0.2376,0.2369,0.2368,0.2367,0.2367,0.2397,0.2399,0.2401,0,0,0,0,0,0,0,0,0,0,0,0,0,0.2363,0.2353,0.2351,0.235,0.235,0.2375,0.2375,0.2376,0.2369,0.2368,0.2367,0.2367,0.2397,0.2399,0.2401,0.243,0,0,0.2407,0.2408,0,0,0,0,0,0,0,0,0.2363,0.2363,0.235,0.235,0.235,0.2367,0.2387,0.2394,0.2369,0.2363,0.2367,0.2366,0.2388,0.2391,0.2398,0.2432,0.2433,0.2407,0.2408,0.2409,0.241,0,0,0,0,0,0,0,0.2362,0.2363,0.2361,0.235,0.2351,0.2367,0.2367,0.2389,0.2381,0.2363,0.2363,0.2364,0.2388,0.2397,0.2399,0.2433,0.2407,0.2409,0.241,0.2411,0.2609,0.2613,0,0,0,0,0,0,0.2355,0.2362,0.236,0.2362,0.2354,0.2368,0.2368,0.2363,0.238,0.2382,0.2365,0.2364,0.2394,0.2397,0.24,0.2478,0.2409,0.2411,0.2412,0.2605,0.261,0.2614,0,0,0,0,0,0,0.2355,0.2355,0.2359,0.2362,0.2364,0.2368,0.2364,0.2364,0.2378,0.2381,0.2383,0.2378,0.2393,0.2397,0.2434,0.2478,0.2412,0.2414,0.26,0.2606,0.2612,0.2607,0,0,0,0,0,0,0.2355,0.2355,0.2358,0.2361,0.2363,0.2378,0.2364,0.2365,0.238,0.2379,0.2394,0.2395,0.2393,0.2431,0.2436,0.2479,0.2415,0.2595,0.2603,0.261,0.2602,0.2612,0.2621,0,0,0,0,0,0.2355,0.2361,0.2358,0.2358,0.2364,0.2379,0.2382,0.2383,0.2381,0.2392,0.2409,0.2395,0.2485,0.2435,0.244,0.2484,0.2591,0.2601,0.2609,0.2598,0.2611,0.2621,0,0,0,0,0,0,0.2365,0.2361,0.2357,0.2361,0.2371,0.2377,0.2389,0.2392,0.2415,0.2417,0.2419,0.2423,0.2492,0.2498,0.2443,0.2577,0.2548,0.2559,0.2538,0.255,0.2559,0.2647,0.2417,0,0,0,0,0,0.2368,0.237,0.2372,0.2377,0.2381,0.2389,0.2398,0.24,0.2416,0.2424,0.2444,0.2483,0.2537,0.2544,0.2597,0.2636,0.2649,0.2686,0.2695,0.2702,0.2786,0.2804,0.2821,0.2644,0.2644,0.2644,0,0,0.2372,0.2372,0.2373,0.238,0.2386,0.2414,0.2393,0.2409,0.2448,0.2426,0.2491,0.252,0.2564,0.2627,0.2659,0.2625,0.2751,0.2713,0.2718,0.28,0.2815,0.2832,0.2846,0.265,0.2649,0.2648,0,0,0.2385,0.2383,0.239,0.2405,0.2418,0.2433,0.2442,0.2462,0.2485,0.2548,0.2558,0.2624,0.2681,0.2726,0.2755,0.2858,0.2816,0.2862,0.2949,0.2962,0.2976,0.2988,0.2966,0.2977,0.2843,0.2843,0.2843,0,0.2393,0.2397,0.2397,0.2417,0.2433,0.2447,0.247,0.2511,0.2549,0.2583,0.2582,0.2725,0.2755,0.284,0.29,0.2881,0.286,0.2875,0.2968,0.2981,0.2994,0.2969,0.2981,0.2844,0.2843,0.2843,0.2843,0,0.2411,0.2424,0.2433,0.2465,0.249,0.2509,0.2556,0.2607,0.2648,0.2689,0.2798,0.2848,0.2927,0.2951,0.297,0.3077,0.3021,0.2979,0.2918,0.301,0.2979,0.2991,0.2845,0.2844,0.2844,0.2844,0,0,0.24,0.2435,0.244,0.2461,0.251,0.2533,0.2619,0.269,0.2758,0.2832,0.2913,0.3054,0.3072,0.3119,0.3119,0.3171,0.3231,0.3129,0.3128,0.3074,0.3224,0.3047,0.3042,0.3163,0.3167,0.317,0.3139,0,0.241,0.2444,0.2467,0.2524,0.2545,0.26,0.2687,0.2765,0.2835,0.2926,0.3006,0.3106,0.3124,0.3165,0.3216,0.3254,0.3275,0.3244,0.318,0.3181,0.2982,0.3056,0.2826,0.2769,0.3151,0.3153,0.3155,0,0.2415,0.2438,0.2474,0.2554,0.2572,0.2627,0.2747,0.2825,0.2958,0.3019,0.311,0.3163,0.3293,0.328,0.3373,0.3333,0.3319,0.3332,0.3326,0.3199,0.303,0.2759,0.2777,0.3175,0.3173,0.3172,0.317,0,0.2387,0.2448,0.2473,0.2495,0.2594,0.2644,0.2719,0.2852,0.2926,0.3075,0.3129,0.3253,0.3303,0.3359,0.3402,0.3386,0.3466,0.3404,0.3223,0.3206,0.3033,0.2995,0.3475,0.3475,0.3475,0.3475,0.3475,0,0.2376,0.2403,0.2466,0.248,0.2555,0.2636,0.2736,0.2838,0.2969,0.3042,0.316,0.321,0.3335,0.3373,0.3411,0.335,0.3442,0.3294,0.3212,0.3018,0.2981,0.3372,0.336,0.3474,0.3474,0.3474,0.3474,0,0.2333,0.2368,0.2406,0.2498,0.2533,0.259,0.2723,0.2798,0.2933,0.302,0.3074,0.3192,0.3235,0.3304,0.3377,0.331,0.3316,0.3254,0.3008,0.2899,0.3041,0.3031,0.3064,0.3058,0.3053,0.3049,0.3046,0,0.2311,0.2321,0.2394,0.2417,0.2453,0.2545,0.261,0.2765,0.282,0.2982,0.2994,0.3085,0.3086,0.3097,0.3062,0.304,0.316,0.2773,0.2734,0.3096,0.3012,0.301,0.3006,0.2479,0.2472,0.2465,0.246,0,0.2271,0.2292,0.2318,0.2359,0.2407,0.2463,0.2548,0.2579,0.2741,0.2795,0.2829,0.286,0.2852,0.2709,0.2673,0.2641,0.2772,0.2633,0.3092,0.2608,0.2539,0.2458,0.2475,0.2403,0.2408,0.2413,0.2416,0.2418,0.2237,0.2236,0.2263,0.2292,0.2333,0.2341,0.2344,0.2406,0.2445,0.2482,0.2583,0.2526,0.253,0.2338,0.2249,0.2178,0.2369,0.2273,0.2296,0.2326,0.2253,0.2178,0.1959,0.1962,0.1964,0.1967,0.1969,0,0.2183,0.2178,0.2199,0.22,0.2179,0.2253,0.2268,0.2223,0.2172,0.2235,0.2232,0.2019,0.1896,0.1915,0.1703,0.166,0.1694,0.1595,0.1639,0.1696,0.1746,0.1648,0.1191,0.1189,0.1187,0.1185,0,0,0.2154,0.2125,0.2114,0.2034,0.2037,0.1971,0.1945,0.1884,0.1876,0.1788,0.1742,0.1858,0.1875,0.1535,0.146,0.1292,0.1501,0.1239,0.1865,0.1977,0.2025,0.2132,0.2043,0,0,0,0,0]},{"header":{"parameterUnit":"m.s-1","parameterCategory":2,"la1":30.2991,"la2":30.254,"lo1":-89.0895,"lo2":-89.0444,"dy":0.0017,"dx":0.0017,"nx":28,"ny":28,"refTime":"2025-07-11T09:00:00:Z","depth":"2","parameterNumber":3,"parameterNumberName":"V-component_of_CURRENTS"},"data":[0,0,0,0,0,0,0,0,0,0,0,0,0,0,0,0,0,0,0,0,0,0,0,0,0,0,0,0,0,0,0,0,0,0,0,0,0,0,0,0,0,0,0,0,0,0,0,0,0,0,0,0,0,0,0,0,0,0,0.0073,0.0072,0,0.0019,0.0018,0.0017,-0.0013,-0.0013,-0.0013,-0.0013,-0.0043,-0.0044,-0.0044,0,0,0,0,0,0,0,0,0,0,0,0,0,0.0112,0.0112,0.0073,0.0072,0.0072,0.0019,0.0018,0.0017,-0.0013,-0.0013,-0.0013,-0.0013,-0.0043,-0.0044,-0.0044,0,0,0,0,0,0,0,0,0,0,0,0,0,0.0081,0.0112,0.0073,0.005,0.0047,0.0019,0.0018,0.0017,-0.0013,-0.0013,-0.0013,-0.0013,-0.0043,-0.0044,-0.0045,-0.0047,0,0,-0.0048,-0.0048,0,0,0,0,0,0,0,0,0.0083,0.008,0.0054,0.0051,0.0048,0.0009,0.0021,-0.0003,-0.0013,0.0011,-0.0013,-0.0013,-0.0024,-0.0026,-0.0036,-0.0048,-0.0049,-0.0048,-0.0048,-0.0049,-0.0049,0,0,0,0,0,0,0,0.0085,0.0082,0.0052,0.0053,0.005,0.0029,0.0024,0.0016,-0.0004,0.0009,0.0006,-0.0001,-0.0025,-0.0035,-0.0036,-0.005,-0.0048,-0.0049,-0.0049,-0.005,-0.0048,-0.0047,0,0,0,0,0,0,0.0093,0.0084,0.0054,0.005,0.0065,0.0028,0.0024,0.0022,-0.0004,-0.0009,-0.0001,-0.0002,-0.0033,-0.0035,-0.0037,0.0002,-0.0049,-0.005,-0.005,-0.0049,-0.0048,-0.0047,0,0,0,0,0,0,0.0094,0.0091,0.0056,0.0065,0.0059,0.0028,0.0027,0.0021,0.0014,-0.0012,-0.0016,-0.0002,-0.0033,-0.0036,-0.0035,-0.0001,-0.005,-0.0051,-0.0049,-0.0048,-0.0048,0.0054,0,0,0,0,0,0,0.0096,0.0092,0.0095,0.0066,0.0059,0.0049,0.0027,0.002,0.001,0.0008,-0.0014,-0.0017,-0.0033,-0.0033,-0.0036,-0.0003,-0.0052,-0.005,-0.0049,-0.0048,0.005,0.0058,0.0066,0,0,0,0,0,0.0097,0.0104,0.0095,0.0091,0.0063,0.0049,0.0044,0.0021,0.001,0.0013,0.0,-0.0016,-0.0028,-0.0033,-0.0037,-0.0003,-0.0051,-0.0049,-0.0048,0.0046,0.0057,0.0065,0,0,0,0,0,0,0.0121,0.0101,0.0091,0.009,0.0075,0.0044,0.0042,0.0027,0.0017,0.0017,-0.0008,-0.0011,-0.0001,-0.0021,-0.0027,-0.0003,-0.0042,-0.0041,0.0031,0.004,0.0048,0.0062,-0.0053,0,0,0,0,0,0.0128,0.013,0.0105,0.0106,0.01,0.0072,0.0063,0.005,0.0035,0.003,0.0014,0.0001,0.0001,0.0006,-0.0009,0.001,-0.0013,0.0026,0.0034,0.0041,0.0049,0.0056,0.0066,-0.0042,-0.0042,-0.0042,0,0,0.0136,0.0126,0.0126,0.0112,0.0097,0.01,0.0067,0.006,0.0073,0.003,0.0041,0.0022,0.0007,0.0027,0.0031,0.0019,0.0057,0.0043,0.005,0.0053,0.0059,0.007,0.0079,-0.0041,-0.0042,-0.0042,0,0,0.0157,0.0147,0.0156,0.0149,0.0134,0.0122,0.0123,0.0098,0.0098,0.0097,0.0081,0.0088,0.0066,0.0083,0.0085,0.0127,0.009,0.0115,0.0182,0.019,0.0199,0.0208,0.0182,0.0187,0.0131,0.0131,0.0131,0,0.0168,0.0181,0.0156,0.0165,0.0171,0.0137,0.0156,0.015,0.0131,0.015,0.0109,0.0115,0.0098,0.0158,0.0168,0.015,0.0129,0.0154,0.0203,0.0211,0.0217,0.0189,0.0193,0.0136,0.0136,0.0135,0.0135,0,0.0197,0.0209,0.0216,0.0223,0.0224,0.0235,0.0226,0.0234,0.0218,0.0216,0.0246,0.022,0.0233,0.0229,0.0207,0.0264,0.0223,0.0206,0.0186,0.0235,0.0201,0.0204,0.0143,0.0142,0.014,0.0139,0,0,0.0225,0.0236,0.0241,0.0264,0.0261,0.0271,0.0299,0.0329,0.0371,0.0339,0.0392,0.0382,0.0369,0.0369,0.0356,0.036,0.0379,0.0306,0.0304,0.0292,0.037,0.0328,0.0325,0.0372,0.0374,0.0375,0.0324,0,0.0262,0.0302,0.0297,0.0347,0.0371,0.0366,0.0404,0.0427,0.0433,0.0471,0.0461,0.049,0.0427,0.0443,0.0439,0.0396,0.0392,0.0393,0.0314,0.0311,0.0278,0.033,0.0333,0.0288,0.0326,0.0327,0.0327,0,0.0299,0.0325,0.0377,0.0433,0.0445,0.0468,0.0541,0.0575,0.062,0.0625,0.0648,0.0627,0.0645,0.0571,0.0526,0.0526,0.0456,0.0406,0.0403,0.0332,0.0275,0.0245,0.029,0.0331,0.0331,0.033,0.033,0,0.0343,0.039,0.0441,0.0454,0.05,0.0537,0.0572,0.0625,0.0687,0.0733,0.0766,0.0764,0.0766,0.0693,0.0573,0.0556,0.0497,0.0465,0.036,0.0354,0.0325,0.0316,0.0434,0.0434,0.0434,0.0434,0.0434,0,0.0393,0.0435,0.0466,0.0492,0.0581,0.0592,0.0698,0.073,0.0802,0.0891,0.0856,0.0902,0.0793,0.074,0.0621,0.0496,0.0536,0.038,0.0352,0.0357,0.0351,0.0362,0.0355,0.0432,0.0433,0.0433,0.0433,0,0.0433,0.0448,0.0513,0.057,0.06,0.0665,0.0778,0.086,0.0903,0.1014,0.1033,0.1014,0.0934,0.0807,0.068,0.0563,0.0447,0.0389,0.0382,0.0355,0.0282,0.028,0.028,0.0278,0.0277,0.0276,0.0275,0,0.0456,0.0489,0.057,0.0626,0.0654,0.0754,0.0837,0.0909,0.0999,0.1082,0.1139,0.1091,0.1065,0.085,0.0647,0.0447,0.0422,0.0307,0.0282,0.03,0.0272,0.0273,0.0272,0.0273,0.0272,0.0271,0.0271,0,0.0504,0.0526,0.0581,0.0692,0.0779,0.0897,0.1009,0.1092,0.1185,0.1253,0.1306,0.1283,0.108,0.0872,0.0593,0.0453,0.034,0.0284,0.0334,0.031,0.0289,0.0263,0.0264,0.0264,0.0265,0.0265,0.0265,0.0266,0.054,0.0589,0.0659,0.077,0.0877,0.1013,0.1116,0.1223,0.1348,0.144,0.1409,0.1356,0.1133,0.0761,0.053,0.0282,0.0297,0.0198,0.0203,0.0208,0.0215,0.0193,0.0149,0.0149,0.0149,0.0149,0.0149,0,0.0586,0.0642,0.0739,0.0868,0.0988,0.1042,0.1217,0.1308,0.1434,0.1483,0.1502,0.1265,0.1029,0.0767,0.04,0.0187,0.0181,0.0108,0.0151,0.0158,0.0165,0.0171,0.0092,0.0092,0.0091,0.0091,0,0,0.0611,0.0698,0.0744,0.093,0.1031,0.1197,0.1296,0.141,0.1475,0.1507,0.1462,0.1398,0.1085,0.0809,0.0521,0.0306,0.0281,0.0258,0.0324,0.0416,0.0425,0.0233,0.0253,0,0,0,0,0]}],[{"header":{"parameterUnit":"m.s-1","parameterCategory":2,"la1":30.2991,"la2":30.254,"lo1":-89.0895,"lo2":-89.0444,"dy":0.0017,"dx":0.0017,"nx":28,"ny":28,"refTime":"2025-07-11T09:00:00:Z","depth":"4","parameterNumber":2,"parameterNumberName":"U-component_of_CURRENTS"},"data":[0,0,0,0,0,0,0,0,0,0,0,0,0,0,0,0,0,0,0,0,0,0,0,0,0,0,0,0,0,0,0,0,0,0,0,0,0,0,0,0,0,0,0,0,0,0,0,0,0,0,0,0,0,0,0,0,0,0,0.1469,0.1469,0,0.1404,0.1403,0.1402,0.1403,0.1405,0.1406,0.1407,0.1361,0.1358,0.1356,0,0,0,0,0,0,0,0,0,0,0,0,0,0.148,0.148,0.1469,0.1469,0.1469,0.1404,0.1403,0.1401,0.1403,0.1405,0.1406,0.1408,0.1362,0.1359,0.1356,0,0,0,0,0,0,0,0,0,0,0,0,0,0.1445,0.148,0.1469,0.1466,0.1466,0.1404,0.1403,0.1401,0.1403,0.1405,0.1407,0.1409,0.1363,0.1359,0.1355,0.1288,0,0,0.1343,0.1342,0,0,0,0,0,0,0,0,0.1447,0.1444,0.1467,0.1467,0.1466,0.1419,0.1389,0.1366,0.1402,0.142,0.1408,0.141,0.1384,0.1379,0.1353,0.1286,0.1284,0.1343,0.1341,0.1339,0.1338,0,0,0,0,0,0,0,0.145,0.1446,0.1437,0.1467,0.1466,0.1429,0.1427,0.1384,0.1387,0.1419,0.142,0.1422,0.1384,0.1357,0.1352,0.1283,0.1343,0.134,0.1337,0.1336,0.135,0.1353,0,0,0,0,0,0,0.1474,0.1449,0.144,0.1436,0.1468,0.1428,0.1425,0.1427,0.1387,0.1384,0.142,0.1422,0.1362,0.1357,0.1351,0.1375,0.1339,0.1335,0.1333,0.1347,0.1351,0.1353,0,0,0,0,0,0,0.1474,0.1473,0.1442,0.1446,0.144,0.1427,0.1428,0.1425,0.1435,0.1389,0.1386,0.144,0.1364,0.1356,0.1358,0.137,0.1334,0.133,0.1344,0.1348,0.1352,0.1357,0,0,0,0,0,0,0.1474,0.1474,0.1492,0.1448,0.1441,0.1428,0.1426,0.1422,0.1434,0.1437,0.1403,0.1399,0.1365,0.1365,0.1355,0.1364,0.1327,0.1341,0.1346,0.1351,0.1353,0.1361,0.1367,0,0,0,0,0,0.1475,0.1489,0.1493,0.1493,0.1464,0.1429,0.1421,0.1414,0.1433,0.1432,0.1431,0.1402,0.1392,0.1362,0.135,0.1359,0.1338,0.1344,0.135,0.135,0.1359,0.1367,0,0,0,0,0,0,0.1501,0.149,0.1494,0.1505,0.1482,0.1432,0.1441,0.1432,0.1425,0.1448,0.1409,0.1403,0.1419,0.14,0.137,0.1391,0.137,0.1374,0.1375,0.1383,0.139,0.144,0.1324,0,0,0,0,0,0.1516,0.153,0.1502,0.1513,0.1512,0.1483,0.1475,0.1468,0.1451,0.1452,0.1428,0.1427,0.1425,0.1416,0.1408,0.1391,0.141,0.1406,0.1413,0.1418,0.1459,0.1506,0.1519,0.1373,0.1373,0.1373,0,0,0.153,0.1528,0.1537,0.1521,0.151,0.1491,0.1483,0.1484,0.1473,0.1446,0.1443,0.1446,0.1434,0.1432,0.1438,0.1416,0.1464,0.1426,0.1429,0.1468,0.1513,0.1527,0.1539,0.1378,0.1377,0.1376,0,0,0.1547,0.1566,0.1576,0.1555,0.1548,0.1527,0.1538,0.1506,0.1506,0.1499,0.1496,0.1526,0.1489,0.149,0.1486,0.1532,0.1508,0.1527,0.1576,0.1619,0.1631,0.1641,0.1649,0.166,0.1517,0.1517,0.1517,0,0.1568,0.1566,0.1571,0.156,0.1547,0.155,0.1535,0.1525,0.1498,0.151,0.1517,0.1541,0.1527,0.1542,0.1569,0.1545,0.1556,0.1527,0.1624,0.1636,0.1647,0.1652,0.1665,0.1518,0.1518,0.1518,0.1518,0,0.1564,0.157,0.1575,0.1565,0.1553,0.1545,0.1529,0.154,0.1558,0.1552,0.1598,0.1597,0.1625,0.1617,0.1603,0.1668,0.1645,0.1629,0.1592,0.1661,0.1663,0.1676,0.1519,0.1519,0.1519,0.1519,0,0,0.158,0.1575,0.1577,0.1565,0.1553,0.1533,0.1549,0.155,0.1586,0.1596,0.164,0.1664,0.1704,0.1711,0.1699,0.1736,0.1805,0.1721,0.1723,0.1709,0.188,0.1729,0.1728,0.1795,0.1798,0.1801,0.1835,0,0.1572,0.156,0.1556,0.1534,0.1519,0.1527,0.1532,0.1547,0.1587,0.1633,0.1679,0.1724,0.1721,0.1753,0.1796,0.181,0.1847,0.1797,0.1836,0.1838,0.1679,0.1742,0.1811,0.1845,0.1848,0.185,0.1851,0,0.1552,0.1545,0.1534,0.1516,0.1515,0.1512,0.1548,0.1555,0.1633,0.1675,0.1756,0.1794,0.1866,0.1863,0.1942,0.1906,0.1923,0.1927,0.1928,0.1808,0.1713,0.1775,0.1875,0.1873,0.1871,0.187,0.1868,0,0.1535,0.1518,0.1515,0.1502,0.1496,0.1511,0.1524,0.1585,0.1619,0.1728,0.179,0.1869,0.193,0.1977,0.2006,0.1985,0.2083,0.2039,0.1917,0.1905,0.2023,0.2012,0.2126,0.2126,0.2126,0.2126,0.2126,0,0.1499,0.1491,0.1515,0.1503,0.1509,0.1511,0.1556,0.1595,0.1684,0.1734,0.1827,0.1886,0.1974,0.2027,0.2039,0.2014,0.211,0.1956,0.192,0.2019,0.2008,0.2029,0.2017,0.2127,0.2127,0.2127,0.2127,0,0.1465,0.1482,0.1473,0.149,0.1501,0.1509,0.1563,0.1594,0.1696,0.1776,0.1817,0.1929,0.1983,0.2034,0.21,0.2037,0.2033,0.2003,0.2104,0.2069,0.1814,0.1803,0.1862,0.1858,0.1854,0.185,0.1848,0,0.1437,0.1439,0.1474,0.1472,0.1482,0.1509,0.1523,0.1601,0.1632,0.1776,0.1794,0.1905,0.1959,0.1928,0.1992,0.1986,0.1967,0.1941,0.1896,0.1837,0.1796,0.1791,0.1785,0.1841,0.184,0.1839,0.1838,0,0.1382,0.1425,0.1428,0.1442,0.1452,0.1445,0.1475,0.1494,0.1579,0.1701,0.1733,0.1764,0.1817,0.1841,0.1852,0.1848,0.194,0.1899,0.1906,0.1864,0.1812,0.1774,0.1773,0.1824,0.1826,0.1828,0.1829,0,0.1356,0.1356,0.1387,0.1375,0.1392,0.1351,0.1378,0.1385,0.1428,0.1576,0.1587,0.1697,0.1803,0.1771,0.1784,0.1762,0.1729,0.1659,0.1678,0.1694,0.1621,0.1529,0.1446,0,0,0,0,0,0.1308,0.1297,0.1298,0.1266,0.1282,0.1285,0.1319,0.1349,0.1451,0.1429,0.1501,0.1539,0.1562,0.162,0.1562,0.1699,0.1731,0.1621,0.1659,0.1749,0.1764,0.1693,0,0,0,0,0,0,0.127,0.1286,0.1274,0.1182,0.1147,0.1134,0.1153,0.1214,0.1199,0.1325,0.1346,0.1445,0.149,0.1589,0.154,0.1552,0.1539,0.1691,0.1686,0.174,0.1754,0.1767,0.1698,0,0,0,0,0]},{"header":{"parameterUnit":"m.s-1","parameterCategory":2,"la1":30.2991,"la2":30.254,"lo1":-89.0895,"lo2":-89.0444,"dy":0.0017,"dx":0.0017,"nx":28,"ny":28,"refTime":"2025-07-11T09:00:00:Z","depth":"4","parameterNumber":3,"parameterNumberName":"V-component_of_CURRENTS"},"data":[0,0,0,0,0,0,0,0,0,0,0,0,0,0,0,0,0,0,0,0,0,0,0,0,0,0,0,0,0,0,0,0,0,0,0,0,0,0,0,0,0,0,0,0,0,0,0,0,0,0,0,0,0,0,0,0,0,0,0.0091,0.0091,0,0.0083,0.0083,0.0083,0.0076,0.0076,0.0076,0.0075,0.0134,0.0136,0.0138,0,0,0,0,0,0,0,0,0,0,0,0,0,0.0112,0.0111,0.0091,0.0091,0.0091,0.0083,0.0083,0.0083,0.0076,0.0076,0.0076,0.0075,0.0134,0.0136,0.0138,0,0,0,0,0,0,0,0,0,0,0,0,0,0.0106,0.0111,0.0091,0.0084,0.0083,0.0083,0.0083,0.0083,0.0077,0.0076,0.0076,0.0075,0.0133,0.0136,0.0138,0.0166,0,0,0.0147,0.0148,0,0,0,0,0,0,0,0,0.0106,0.0105,0.0086,0.0085,0.0084,0.0078,0.0112,0.0113,0.0077,0.0082,0.0075,0.0075,0.012,0.0124,0.0127,0.0168,0.0171,0.0147,0.0149,0.015,0.0151,0,0,0,0,0,0,0,0.0106,0.0106,0.0091,0.0085,0.0084,0.0085,0.0084,0.0112,0.0108,0.0082,0.008,0.0075,0.012,0.0124,0.0128,0.0172,0.0147,0.015,0.0151,0.0152,0.0239,0.0239,0,0,0,0,0,0,0.0102,0.0106,0.0091,0.009,0.0091,0.0084,0.0083,0.0082,0.0106,0.0107,0.0076,0.0075,0.0119,0.0125,0.013,0.0188,0.015,0.0153,0.0154,0.0238,0.0239,0.024,0,0,0,0,0,0,0.0102,0.0101,0.0091,0.0095,0.0094,0.0084,0.0084,0.0082,0.0087,0.01,0.0103,0.0081,0.0119,0.0126,0.0159,0.019,0.0154,0.0157,0.0237,0.0238,0.0239,0.0289,0,0,0,0,0,0,0.0103,0.0101,0.0104,0.0095,0.0093,0.0096,0.0084,0.0083,0.0083,0.0082,0.0106,0.011,0.0119,0.0155,0.0162,0.0193,0.0159,0.0237,0.0238,0.0239,0.0287,0.0292,0.0296,0,0,0,0,0,0.0104,0.0109,0.0105,0.0103,0.0097,0.0096,0.0096,0.0089,0.0084,0.0091,0.0106,0.0109,0.0167,0.0158,0.0166,0.0199,0.0236,0.0238,0.0239,0.0285,0.0291,0.0296,0,0,0,0,0,0,0.0119,0.0108,0.0104,0.0105,0.0102,0.0094,0.0098,0.0093,0.0109,0.0112,0.0123,0.013,0.0168,0.0172,0.0162,0.0223,0.02,0.0203,0.0233,0.0238,0.0243,0.0238,0.0161,0,0,0,0,0,0.0124,0.0127,0.0115,0.0119,0.0116,0.0109,0.0109,0.0106,0.0113,0.0118,0.0135,0.0154,0.018,0.0199,0.0218,0.0259,0.023,0.0281,0.0286,0.029,0.029,0.0255,0.0256,0.0244,0.0244,0.0244,0,0,0.013,0.0125,0.0126,0.0123,0.0119,0.0133,0.0109,0.0112,0.0137,0.0126,0.0168,0.0172,0.0192,0.0233,0.0251,0.0243,0.0279,0.0292,0.0295,0.0293,0.0256,0.0257,0.0258,0.0245,0.0245,0.0245,0,0,0.0146,0.014,0.0148,0.0151,0.0147,0.015,0.0152,0.015,0.0163,0.0197,0.0195,0.021,0.0257,0.0271,0.0286,0.0326,0.03,0.0336,0.0367,0.0334,0.0334,0.0334,0.0302,0.0299,0.0344,0.0344,0.0344,0,0.0155,0.0167,0.0152,0.0164,0.0177,0.0161,0.0185,0.0197,0.0211,0.0228,0.0218,0.026,0.0275,0.0319,0.0334,0.0339,0.031,0.0349,0.0339,0.0338,0.0337,0.0304,0.03,0.0347,0.0347,0.0346,0.0346,0,0.0179,0.0193,0.0199,0.0216,0.0229,0.0245,0.0257,0.0278,0.0288,0.0295,0.0329,0.0332,0.0353,0.0363,0.0369,0.0381,0.036,0.0344,0.0325,0.0342,0.0306,0.03,0.0351,0.035,0.0349,0.0348,0,0,0.0195,0.0213,0.0219,0.0242,0.0262,0.0278,0.0323,0.0356,0.0385,0.0389,0.0418,0.0449,0.0426,0.0439,0.0434,0.0411,0.0386,0.0381,0.0378,0.0348,0.0307,0.0299,0.0292,0.0363,0.0363,0.0362,0.0286,0,0.0224,0.026,0.0268,0.0323,0.0346,0.0361,0.0409,0.0437,0.0452,0.0474,0.0463,0.0486,0.0464,0.0472,0.0445,0.0399,0.0373,0.0407,0.0295,0.0292,0.0282,0.0286,0.036,0.0281,0.028,0.0279,0.0278,0,0.0252,0.0276,0.0327,0.0386,0.0399,0.0436,0.0502,0.0542,0.0564,0.0571,0.0567,0.0546,0.0531,0.0497,0.0416,0.0437,0.038,0.0332,0.0328,0.0298,0.0274,0.0259,0.0268,0.0269,0.027,0.027,0.0271,0,0.0275,0.0326,0.0374,0.0391,0.0448,0.0488,0.053,0.057,0.0616,0.0623,0.0632,0.0595,0.0582,0.0497,0.0409,0.0408,0.0298,0.0283,0.022,0.0219,0.0226,0.0226,0.0217,0.0217,0.0217,0.0217,0.0217,0,0.0308,0.0349,0.0389,0.0415,0.0493,0.0522,0.0605,0.0634,0.0674,0.0719,0.068,0.0684,0.0578,0.0508,0.0414,0.0301,0.03,0.0223,0.0198,0.025,0.0254,0.0222,0.0223,0.0214,0.0215,0.0215,0.0216,0,0.0329,0.035,0.0409,0.0473,0.0503,0.0562,0.0663,0.0715,0.0742,0.0789,0.0793,0.0749,0.0655,0.0542,0.0402,0.032,0.0206,0.0168,0.0234,0.0215,0.0146,0.0151,0.0084,0.0083,0.0082,0.0082,0.0081,0,0.0341,0.0369,0.0449,0.0495,0.0529,0.0619,0.0685,0.0747,0.0796,0.0827,0.0842,0.0776,0.0728,0.0523,0.0399,0.0213,0.0191,0.0124,0.0132,0.0149,0.0132,0.0138,0.0144,0.008,0.008,0.0079,0.0079,0,0.0367,0.0393,0.0442,0.053,0.0604,0.0696,0.0784,0.0823,0.0885,0.0902,0.0879,0.0784,0.068,0.0523,0.0385,0.0252,0.0159,0.0115,0.0116,0.0123,0.0143,0.0128,0.0135,0.0077,0.0077,0.0077,0.0077,0,0.0388,0.0425,0.0485,0.0571,0.0661,0.0745,0.0795,0.0849,0.09,0.0919,0.0905,0.0797,0.0736,0.0543,0.0413,0.0284,0.0248,0.0194,0.019,0.0192,0.0246,0.0289,0.0245,0,0,0,0,0,0.0407,0.0449,0.0524,0.0614,0.0703,0.0759,0.085,0.089,0.0934,0.092,0.0917,0.0819,0.0633,0.0554,0.0423,0.0394,0.0224,0.0234,0.0159,0.0062,0.0065,0.011,0,0,0,0,0,0,0.0418,0.0483,0.052,0.0633,0.0701,0.0803,0.0863,0.0894,0.0888,0.0903,0.0807,0.077,0.0591,0.0704,0.0415,0.0378,0.0308,0.0154,0.0151,0.006,0.0063,0.0065,0.0113,0,0,0,0,0]}]]